CW3766 Weather Reports


time (UTC)temp
C
wind
direction
speed
KPH
gust
KPH
rain 1hr
cm
rain 24hr
cm
rain mn
cm
humidity
%
barometer
mb
20260507160602 13 7 4.8 11.3 0.00 0.00 0.00 49 1011.2
20260507155603 13 24 4.8 9.7 0.00 0.00 0.00 49 1011.2
20260507155103 13 33 3.2 9.7 0.00 0.00 0.00 52 1011.3
20260507152603 13 10 1.6 4.8 0.00 0.00 0.00 56 1011.5
20260507152103 13 329 0.0 4.8 0.00 0.00 0.00 55 1011.7
20260507151602 13 321 1.6 4.8 0.00 0.00 0.00 54 1011.7
20260507150602 13 57 3.2 4.8 0.00 0.00 0.00 55 1011.7
20260507145602 12 49 0.0 3.2 0.00 0.00 0.00 58 1011.9
20260507145102 12 264 1.6 4.8 0.00 0.00 0.00 55 1012.0
20260507144602 12 25 1.6 4.8 0.00 0.00 0.00 56 1012.1
20260507144103 12 357 3.2 8.0 0.00 0.00 0.00 58 1012.1
20260507143603 12 2 3.2 4.8 0.00 0.00 0.00 57 1012.2
20260507143102 12 16 3.2 4.8 0.00 0.00 0.00 57 1012.3
20260507142602 12 353 3.2 4.8 0.00 0.00 0.00 59 1012.2
20260507142103 12 24 1.6 8.0 0.00 0.00 0.00 57 1012.2
20260507141602 12 28 4.8 9.7 0.00 0.00 0.00 57 1012.3
20260507141103 12 0 3.2 4.8 0.00 0.00 0.00 58 1012.4
20260507140603 12 34 3.2 8.0 0.00 0.00 0.00 57 1012.4
20260507140103 12 45 3.2 8.0 0.00 0.00 0.00 58 1012.4
20260507135603 12 1 1.6 3.2 0.00 0.00 0.00 58 1012.4
20260507134603 12 358 1.6 4.8 0.00 0.00 0.00 58 1012.7
20260507134103 12 323 3.2 4.8 0.00 0.00 0.00 57 1012.8
20260507133603 12 5 1.6 8.0 0.00 0.00 0.00 59 1012.6
20260507133103 12 20 3.2 8.0 0.00 0.00 0.00 60 1012.7
20260507132102 12 315 0.0 4.8 0.00 0.00 0.00 65 1012.6
20260507131603 12 3 1.6 8.0 0.00 0.00 0.00 65 1012.5
20260507131102 12 20 1.6 3.2 0.00 0.00 0.00 68 1012.5
20260507130603 12 0 1.6 3.2 0.00 0.00 0.00 67 1012.5
20260507125602 12 330 1.6 3.2 0.00 0.00 0.00 68 1012.5
20260507125103 12 301 1.6 4.8 0.00 0.00 0.00 67 1012.4
20260507124602 12 353 3.2 4.8 0.00 0.00 0.00 67 1012.4
20260507124102 12 347 1.6 4.8 0.00 0.00 0.00 68 1012.4
20260507123603 12 15 1.6 8.0 0.00 0.00 0.00 68 1012.5
20260507122603 12 18 1.6 4.8 0.00 0.00 0.00 70 1012.5
20260507122103 12 355 0.0 4.8 0.00 0.00 0.00 71 1012.5
20260507121603 12 37 1.6 3.2 0.00 0.00 0.00 72 1012.5
20260507115603 12 26 1.6 4.8 0.00 0.00 0.00 75 1012.4
20260507115103 12 21 1.6 3.2 0.00 0.00 0.00 73 1012.4
20260507113602 12 9 3.2 4.8 0.00 0.00 0.00 73 1012.0
20260507112602 12 14 3.2 4.8 0.00 0.00 0.00 73 1012.0
20260507112103 12 357 3.2 8.0 0.00 0.00 0.00 73 1011.9
20260507111603 12 314 1.6 4.8 0.00 0.00 0.00 73 1011.9
20260507111103 12 353 1.6 4.8 0.00 0.00 0.00 72 1012.0
20260507110602 12 0 1.6 4.8 0.00 0.00 0.00 72 1011.8
20260507110103 12 7 1.6 9.7 0.00 0.00 0.00 72 1011.8
20260507105603 12 31 3.2 8.0 0.00 0.00 0.00 71 1011.9
20260507105102 12 29 3.2 8.0 0.00 0.00 0.00 71 1012.0
20260507104602 12 28 3.2 9.7 0.00 0.00 0.00 70 1011.8
20260507104102 12 25 4.8 12.9 0.00 0.00 0.00 70 1011.8
20260507103602 12 15 3.2 8.0 0.00 0.00 0.00 71 1011.7
20260507103103 12 10 1.6 9.7 0.00 0.00 0.00 73 1011.7
20260507102103 12 31 1.6 4.8 0.00 0.00 0.00 73 1011.6
20260507101603 12 22 3.2 9.7 0.00 0.00 0.00 75 1011.7
20260507100602 12 11 3.2 9.7 0.00 0.00 0.00 78 1011.5
20260507095603 12 36 3.2 8.0 0.00 0.00 0.00 81 1011.5
20260507095103 12 29 3.2 8.0 0.00 0.00 0.00 81 1011.6
20260507094603 12 33 3.2 8.0 0.00 0.00 0.00 80 1011.4
20260507093603 12 338 1.6 4.8 0.00 0.00 0.00 80 1011.5
20260507092603 12 24 1.6 4.8 0.00 0.00 0.00 79 1011.4
20260507092103 12 0 1.6 4.8 0.00 0.00 0.00 79 1011.2
20260507091603 12 7 3.2 8.0 0.00 0.00 0.00 78 1011.0
20260507091102 12 25 1.6 4.8 0.00 0.00 0.00 80 1011.2
20260507090603 12 22 1.6 4.8 0.00 0.00 0.00 80 1011.2
20260507085103 12 328 0.0 3.2 0.00 0.00 0.00 84 1011.4
20260507083603 12 336 0.0 3.2 0.00 0.00 0.00 81 1011.2
20260507083102 12 7 1.6 4.8 0.00 0.00 0.00 83 1011.2
20260507082602 12 349 1.6 4.8 0.00 0.00 0.00 82 1011.3
20260507082102 12 19 3.2 4.8 0.00 0.00 0.00 81 1011.3
20260507081602 12 335 3.2 9.7 0.00 0.00 0.00 83 1011.2
20260507080603 12 324 3.2 4.8 0.00 0.00 0.00 82 1011.1
20260507080103 12 329 1.6 4.8 0.00 0.00 0.00 82 1010.9
20260507075103 12 324 3.2 8.0 0.00 0.00 0.00 82 1010.6
20260507074602 12 6 3.2 4.8 0.00 0.00 0.00 82 1010.6
20260507074103 12 12 3.2 4.8 0.00 0.00 0.00 83 1010.7
20260507073603 12 31 0.0 4.8 0.00 0.00 0.00 84 1010.8
20260507073103 12 328 1.6 8.0 0.00 0.00 0.00 82 1010.7
20260507072604 12 343 3.2 11.3 0.00 0.00 0.00 82 1010.6
20260507072103 12 4 3.2 9.7 0.00 0.00 0.00 82 1010.5
20260507071603 12 359 1.6 8.0 0.00 0.00 0.00 83 1010.6
20260507071102 12 38 4.8 9.7 0.00 0.00 0.00 81 1010.7
20260507070603 12 349 4.8 12.9 0.00 0.00 0.00 81 1010.6
20260507065603 13 0 1.6 9.7 0.00 0.00 0.00 83 1010.6
20260507065103 13 12 3.2 11.3 0.00 0.00 0.00 82 1010.6
20260507064602 13 359 4.8 12.9 0.00 0.00 0.00 82 1010.8
20260507064103 13 4 3.2 11.3 0.00 0.00 0.00 83 1010.8
20260507063604 13 355 3.2 8.0 0.00 0.00 0.00 85 1010.8
20260507061604 13 351 3.2 8.0 0.00 0.00 0.00 87 1010.9
20260507055603 13 330 3.2 12.9 0.00 0.00 0.00 89 1010.5
20260507055103 13 17 4.8 8.0 0.00 0.00 0.00 89 1010.6
20260507054603 13 2 3.2 9.7 0.00 0.00 0.00 89 1010.8
20260507054102 13 328 3.2 9.7 0.00 0.00 0.00 89 1010.6
20260507053603 13 358 3.2 12.9 0.00 0.00 0.00 89 1010.6
20260507053103 13 6 3.2 4.8 0.00 0.00 0.00 90 1011.0
20260507052603 13 320 0.0 11.3 0.00 0.00 0.00 90 1010.8
20260507052103 13 3 1.6 4.8 0.00 0.00 0.00 90 1010.7
20260507051603 13 356 1.6 3.2 0.00 0.00 0.00 90 1010.7
20260507051103 13 331 1.6 3.2 0.00 0.00 0.00 90 1010.6
20260507050603 13 319 1.6 4.8 0.00 0.00 0.00 89 1010.3
20260507045603 13 350 1.6 4.8 0.00 0.00 0.00 90 1010.5
20260507045103 13 44 1.6 8.0 0.00 0.00 0.00 90 1010.9
20260507044603 13 338 3.2 4.8 0.00 0.00 0.00 89 1010.9
20260507044104 14 309 3.2 8.0 0.00 0.00 0.00 89 1010.6
20260507043103 14 322 1.6 4.8 0.00 0.00 0.00 87 1010.8
20260507042603 15 24 3.2 12.9 0.00 0.00 0.00 86 1010.9
20260507041603 15 17 4.8 14.5 0.00 0.00 0.00 82 1010.8
20260507041103 16 334 4.8 12.9 0.00 0.00 0.00 80 1010.7
20260507040604 16 354 4.8 11.3 0.00 0.00 0.00 80 1010.5
20260507040103 16 1 4.8 11.3 0.00 0.00 0.00 80 1010.3
20260507035603 16 341 4.8 9.7 0.00 0.00 0.00 80 1010.2
20260507035104 16 18 4.8 9.7 0.00 0.00 0.00 80 1010.1
20260507034603 16 21 6.4 12.9 0.00 0.00 0.00 81 1010.2
20260507034103 16 348 6.4 11.3 0.00 0.00 0.00 81 1010.1
20260507033603 16 15 8.0 12.9 0.00 0.00 0.00 81 1010.1
20260507033103 16 29 3.2 11.3 0.00 0.00 0.00 83 1010.3
20260507032603 16 6 6.4 12.9 0.00 0.00 0.00 82 1010.1
20260507031603 16 31 4.8 11.3 0.00 0.00 0.00 81 1010.4
20260507031103 16 26 3.2 11.3 0.00 0.00 0.00 82 1010.3
20260507030603 16 10 3.2 8.0 0.00 0.00 0.00 82 1010.1
20260507030104 16 326 3.2 9.7 0.00 0.00 0.00 81 1009.9
20260507025603 17 25 4.8 9.7 0.00 0.00 0.00 81 1009.6
20260507025103 17 0 4.8 11.3 0.00 0.00 0.00 81 1009.3
20260507024603 17 12 4.8 11.3 0.00 0.00 0.00 82 1009.2
20260507024103 17 24 8.0 12.9 0.00 0.00 0.00 83 1009.6
20260507023603 17 35 4.8 12.9 0.00 0.00 0.00 85 1009.7
20260507023103 17 341 3.2 8.0 0.00 0.00 0.00 86 1009.7
20260507022603 17 349 3.2 9.7 0.00 0.00 0.00 87 1009.3
20260507022103 17 10 3.2 9.7 0.00 0.00 0.00 86 1009.3
20260507021603 17 25 4.8 11.3 0.00 0.00 0.00 86 1009.3
20260507021103 17 0 1.6 8.0 0.00 0.00 0.00 87 1009.1
20260507020103 17 338 0.0 4.8 0.00 0.00 0.00 88 1009.2
20260507015603 17 7 1.6 4.8 0.00 0.00 0.00 88 1009.2
20260507015104 17 15 0.0 4.8 0.00 0.00 0.00 88 1009.2
20260507014603 17 353 0.0 8.0 0.00 0.00 0.00 88 1009.1
20260507014103 17 7 1.6 9.7 0.00 0.00 0.00 87 1009.0
20260507013604 18 7 1.6 4.8 0.00 0.00 0.00 88 1009.0
20260507012603 18 11 3.2 8.0 0.00 0.00 0.00 88 1009.1
20260507012103 18 37 1.6 4.8 0.00 0.00 0.00 89 1009.3
20260507011603 18 1 1.6 4.8 0.00 0.00 0.00 89 1009.4
20260507011103 18 356 3.2 9.7 0.00 0.00 0.00 89 1009.4
20260507010603 18 349 0.0 4.8 0.00 0.00 0.00 91 1009.3
20260507005603 18 7 1.6 3.2 0.00 0.00 0.00 91 1008.9
20260507004603 18 15 0.0 3.2 0.00 0.00 0.00 90 1008.8
20260507004103 18 338 0.0 3.2 0.00 0.00 0.00 90 1008.8
20260507003103 18 28 1.6 3.2 0.00 0.00 0.00 90 1008.7
20260507002604 18 322 0.0 0.0 0.00 0.00 0.00 89 1008.5
20260507002104 18 322 0.0 0.0 0.00 0.00 0.00 89 1008.6
20260507001604 19 322 0.0 3.2 0.00 0.00 0.00 89 1008.5
20260507000603 19 347 1.6 3.2 0.00 0.00 0.00 88 1008.4
20260506234604 20 6 0.0 0.0 0.00 0.00 0.00 83 1008.1
20260506233603 20 354 0.0 3.2 0.00 0.00 0.00 81 1007.9
20260506233103 21 287 1.6 3.2 0.00 0.00 0.00 80 1007.8
20260506232603 21 314 0.0 3.2 0.00 0.00 0.00 80 1007.7
20260506232103 21 305 0.0 3.2 0.00 0.00 0.00 80 1007.7
20260506231604 21 221 4.8 9.7 0.00 0.00 0.00 79 1007.6
20260506230603 21 190 3.2 4.8 0.00 0.00 0.00 78 1007.4
20260506230103 21 170 4.8 11.3 0.00 0.00 0.00 78 1007.4
20260506225604 21 191 1.6 8.0 0.00 0.00 0.00 78 1007.5
20260506225103 21 179 4.8 9.7 0.00 0.00 0.00 78 1007.5
20260506224603 21 212 4.8 16.1 0.00 0.00 0.00 78 1007.4
20260506224103 21 230 3.2 12.9 0.00 0.00 0.00 78 1007.4
20260506223604 21 213 4.8 12.9 0.00 0.00 0.00 77 1007.3
20260506223104 21 202 3.2 12.9 0.00 0.00 0.00 77 1007.2
20260506222603 21 187 8.0 14.5 0.00 0.00 0.00 77 1007.4
20260506222103 21 177 9.7 16.1 0.00 0.00 0.00 78 1007.4
20260506221603 21 196 3.2 14.5 0.00 0.00 0.00 78 1007.4
20260506221104 21 216 6.4 14.5 0.00 0.00 0.00 78 1007.3
20260506220603 21 194 6.4 14.5 0.00 0.00 0.00 78 1007.2
20260506215603 21 180 4.8 14.5 0.00 0.00 0.00 78 1007.2
20260506215103 21 189 3.2 14.5 0.00 0.00 0.00 79 1007.4
20260506214603 21 211 4.8 14.5 0.00 0.00 0.00 78 1007.3
20260506214104 21 237 4.8 12.9 0.00 0.00 0.00 78 1007.3
20260506213603 21 199 6.4 19.3 0.00 0.00 0.00 78 1007.3
20260506213104 21 227 8.0 20.9 0.00 0.00 0.00 79 1007.3
20260506212604 21 217 9.7 20.9 0.00 0.00 0.00 79 1007.2
20260506211603 21 196 6.4 19.3 0.00 0.00 0.00 79 1007.2
20260506211103 21 194 9.7 22.5 0.00 0.00 0.00 78 1007.3
20260506210104 21 216 9.7 22.5 0.00 0.00 0.00 78 1007.1
20260506205603 21 217 4.8 12.9 0.00 0.00 0.00 77 1007.1
20260506204603 21 211 8.0 19.3 0.00 0.00 0.00 78 1006.8
20260506204104 21 217 8.0 22.5 0.00 0.00 0.00 77 1006.7
20260506203604 21 189 8.0 12.9 0.00 0.00 0.00 78 1006.8
20260506202603 20 252 4.8 16.1 0.00 0.00 0.00 79 1006.9
20260506202103 20 184 8.0 20.9 0.00 0.00 0.00 79 1006.9
20260506201603 20 204 6.4 19.3 0.00 0.00 0.00 80 1006.9
20260506201104 20 194 9.7 22.5 0.00 0.00 0.00 80 1007.0
20260506200603 20 218 8.0 24.1 0.00 0.00 0.00 79 1007.1
20260506195103 20 181 11.3 24.1 0.00 0.00 0.00 80 1007.2
20260506194604 20 187 9.7 22.5 0.00 0.00 0.00 80 1007.2
20260506194103 20 202 16.1 25.7 0.00 0.00 0.00 80 1007.2
20260506193604 20 222 12.9 27.4 0.00 0.00 0.00 80 1007.1
20260506193103 20 222 9.7 22.5 0.00 0.00 0.00 80 1007.1
20260506192603 20 230 9.7 25.7 0.00 0.00 0.00 80 1007.2
20260506192104 20 214 9.7 24.1 0.00 0.00 0.00 80 1007.3
20260506191604 19 215 6.4 19.3 0.00 0.00 0.00 81 1007.3
20260506191103 20 225 8.0 20.9 0.00 0.00 0.00 80 1007.4
20260506190603 20 190 9.7 22.5 0.00 0.00 0.00 80 1007.5
20260506185603 19 185 11.3 25.7 0.00 0.00 0.00 81 1007.6
20260506185104 19 196 14.5 22.5 0.00 0.00 0.00 81 1007.6
20260506184604 19 175 8.0 20.9 0.00 0.00 0.00 82 1007.8
20260506184103 19 194 9.7 16.1 0.00 0.00 0.00 82 1007.9
20260506183104 18 188 9.7 22.5 0.00 0.00 0.00 82 1008.0
20260506182604 18 200 9.7 19.3 0.00 0.00 0.00 82 1008.0
20260506182103 18 193 4.8 22.5 0.00 0.00 0.00 82 1007.9
20260506181604 18 195 9.7 22.5 0.00 0.00 0.00 82 1008.0
20260506181104 18 206 8.0 20.9 0.00 0.00 0.00 82 1008.2
20260506180603 18 187 8.0 19.3 0.00 0.00 0.00 83 1008.1
20260506180103 18 201 11.3 22.5 0.00 0.00 0.00 83 1008.1
20260506175104 18 198 8.0 22.5 0.00 0.00 0.00 83 1008.0
20260506174604 18 182 6.4 25.7 0.00 0.00 0.00 83 1008.2
20260506174103 18 233 9.7 25.7 0.00 0.00 0.00 83 1008.2
20260506173603 18 201 9.7 25.7 0.00 0.00 0.00 83 1008.2
20260506173104 18 213 8.0 19.3 0.00 0.00 0.00 84 1008.3
20260506172603 18 178 8.0 19.3 0.00 0.00 0.00 84 1008.4
20260506172103 18 222 9.7 24.1 0.00 0.00 0.00 84 1008.5
20260506171603 18 186 9.7 24.1 0.00 0.00 0.00 84 1008.4
20260506171103 17 179 9.7 19.3 0.00 0.00 0.00 85 1008.4
20260506170603 17 199 4.8 16.1 0.00 0.00 0.00 85 1008.4
20260506165603 17 189 9.7 20.9 0.00 0.00 0.00 86 1008.4
20260506165104 17 206 9.7 19.3 0.00 0.00 0.00 86 1008.5
20260506164604 17 192 8.0 16.1 0.00 0.00 0.00 86 1008.5
20260506164104 17 188 8.0 20.9 0.00 0.00 0.00 87 1008.5
20260506163603 17 204 11.3 27.4 0.00 0.00 0.00 87 1008.6
20260506163104 17 174 9.7 27.4 0.00 0.00 0.00 87 1008.8
20260506162603 17 225 11.3 22.5 0.00 0.00 0.00 88 1008.7
20260506162104 17 185 9.7 25.7 0.00 0.00 0.00 88 1008.6
20260506161603 17 184 14.5 32.2 0.00 0.00 0.00 88 1008.7
20260506161104 16 184 16.1 29.0 0.00 0.00 0.00 89 1008.8